Location: Alulod
(14.2076°N, 120.8898°E)
Time: 02:09:58
(UTC+00:00)

SL-16 R/B - Pass Details

Date: 13 December 2025
Orbit: 841 x 845 km, 71.0° (Epoch: 15 January)

Event Time Altitude Azimuth Distance (km) Brightness Sun altitude
Rises 21:20:00 0° 346° (NNW) 3,393 5.0 -12.5°
Reaches altitude 10° 21:22:27 10° 348° (NNW) 2,458 4.3 -12.0°
Maximum altitude 21:28:05 75° 74° (ENE) 873 2.4 -10.7°
Drops below altitude 10° 21:33:43 10° 159° (SSE) 2,455 5.3 -9.4°
Sets 21:36:09 0° 160° (SSE) 3,389 6.0 -8.9°
